« Back
NWS Peachtree City, Ga » Text Product » GA Regional Weather Roundup


Printer-friendly Version
Current Version              Previous Versions:   1  2  3  4  5  6  7  8  9  

Regional Weather Roundup

139
ASUS42 KFFC 281503
RWRGA
WEATHER ROUNDUP FOR GEORGIA
NATIONAL WEATHER SERVICE PEACHTREE CITY GA
1000 AM EST WED JAN 28 2015

NOTE: "FAIR" INDICATES FEW OR NO CLOUDS BELOW 12,000 FEET WITH NO
SIGNIFICANT WEATHER AND/OR OBSTRUCTIONS TO VISIBILITY.

* = USE WITH CAUTION. THE STATIONS MARKED WITH AN ASTERISK MAY NOT
REPORT WEATHER SUCH AS PRECIPITATION, FOG, OR THUNDER AND ARE NOT
QUALITY CONTROLLED BY NWS.

THE REMARK "TC" DENOTES TEMPERATURE READING IN DEGREES CELSIUS.

GAZ001>058-281600-
NORTH GEORGIA

CITY           SKY/WX    TMP DP  RH WIND       PRES   REMARKS
ATLANTA        SUNNY     38  25  59 NW13      30.27R WCI  30
ATHENS         SUNNY     38  25  59 NE6       30.27R WCI  33
CHAMBLEE       SUNNY     36  24  62 NW7       30.27R WCI  30
PEACHTREE CITY SUNNY     38  25  59 N10       30.28R WCI  31
ROME           SUNNY     37  23  56 N9        30.32R WCI  30
WEST ATLANTA   SUNNY     38  24  57 NW7       30.29R WCI  33
GAINESVILLE    SUNNY     36  20  52 NW7       30.25R WCI  30
CARTERSVILLE   SUNNY     36  21  54 N7        30.32R WCI  30


CITY           SKY/WX    TMP DP  RH WIND       PRES   REMARKS
DALTON*        SUNNY     34  25  69 N10       30.33R WCI  26
LAWRENCEVILLE* SUNNY     37  19  48 CALM      30.24R
MARIETTA       SUNNY     37  23  56 NW10      30.28R WCI  30
KENNESAW*      SUNNY    N/A N/A N/A NW8       30.29R
$$

GAZ059>098-102>109-281600-
CENTRAL GEORGIA

CITY           SKY/WX    TMP DP  RH WIND       PRES   REMARKS
AUGUSTA-BUSH   SUNNY     40  25  55 NE7       30.29R
AUGUSTA-DANIEL SUNNY     40  21  46 N10       30.28R WCI  33
COLUMBUS       SUNNY     40  26  57 NE10      30.28R WCI  33
MACON          SUNNY     40  29  64 NE10      30.28R WCI  33
ROBINS AFB     SUNNY     40  28  64 N6        30.29R


CITY           SKY/WX    TMP DP  RH WIND       PRES   REMARKS
LAGRANGE*      SUNNY     42  31  65 NE10      30.28S
SYLVANIA*      SUNNY     40  28  62 NE12      30.29R WCI  33
MILLEDGEVILLE* SUNNY     39  32  75 N3        30.29R
$$

GAZ099>101-110>166-281600-
SOUTH GEORGIA

CITY           SKY/WX    TMP DP  RH WIND       PRES   REMARKS
SAVANNAH       SUNNY     43  21  41 N13       30.28R
VALDOSTA       SUNNY     43  32  65 N14       30.26R
ALMA           SUNNY     43  30  60 N6        30.27R
ST SIMONS      SUNNY     45  26  47 N14       30.25R
FT STEWART     SUNNY     43  23  46 N14       30.25R
ALBANY         SUNNY     41  29  62 N10       30.32R
HUNTER AFB     SUNNY     42  20  40 NE13G21   30.26R
MOODY AFB      SUNNY     42  31  64 N13       30.26R
BRUNSWICK      SUNNY     45  28  53 N9        30.26R


CITY           SKY/WX    TMP DP  RH WIND       PRES   REMARKS
BAINBRIDGE*    SUNNY     45  34  65 N12       30.30R
MOULTRIE*      SUNNY     41  32  70 N10G16    30.28R
VIDALIA*       SUNNY     43  32  65 NE10      30.27R
WAYCROSS*      SUNNY     46  35  65 N7        30.27R
DOUGLAS*       SUNNY     43  32  65 N8G16     30.29R
$$



USA.gov is the U.S. government's official web portal to all federal, state and local government web resources and services.